Погода в Кировске

Россия / Мурманская область     67°36′43″N   33°40′05″E
темп.,
°C
ветер,
м/с
пор.,
м/с
влажн.,
%
обл.,
%
осадки,
мм/ч
давл.,
гПа
погр.,
м
25 января, вт
вт2500:00−6з389235 0.3 996188
03:00−7з389576 0.3 998206
06:00−8зсз379448 0.0 998171
09:00−11зсз379668 0.0 1001159
12:00−10зсз4997100 0.0 1002228
15:00−9з4109345 0.0 1003303
18:00−10з499234 0.0 1005252
21:00−10з499546 0.0 1005226
26 января, ср
ср2600:00−11з499541 0.0 1005200
03:00−13з379884 0.0 1006151
06:00−14зсз259979 0.0 100681
09:00−16сз229851 0.0 100525
12:00−15сз119588 0.0 100514
15:00−14з019368 0.0 10039
18:00−13ююз0196100 0.0 100333
21:00−10ююв1397100 0.4 1001108
27 января, чт
чт2700:00−10ююв1397100 0.3 999138
03:00−9ю1396100 1.3 998133
06:00−9ю129788 0.5 99770
09:00−9в019790 0.9 99747
12:00−10св119786 0.3 99726
15:00−10ссв1198100 0.5 99713
18:00−11ссв119781 0.1 99714
21:00−10ссв1197100 0.2 99816
28 января, пт
пт2800:00−9ссв119796 0.3 99815
03:00−10с1197100 0.4 99913
06:00−10с1196100 0.1 100013
09:00−11ссз1195100 0.2 100113
12:00−11ссз1194100 0.0 100224
15:00−11сз1295100 0.0 100328
18:00−12с1196100 0.0 100418
21:00−10сз1197100 0.2 100435
29 января, сб
сб2900:00−8сз1297100 0.4 100459
03:00−8сз1297100 1.1 100464
06:00−10сз2295100 0.1 100348
09:00−14ссз119598 0.1 100311
12:00−15с11957 0.0 100210
15:00−15ссв119716 0.0 10019
18:00−17св219732 0.0 99910
21:00−14св2198100 0.1 99830